Regional Weather Roundup
Issued by NWS

Home | Current Version | Previous Version | Text Only | Print | Product List | Glossary Off
Versions: 1 2 3 4 5 6 7 8 9 10 11 12 13 14 15 16 17 18 19 20 21 22 23 24 25 26 27 28 29 30 31 32 33 34 35 36 37 38 39 40 41 42 43 44 45 46 47 48 49 50

000
ASUS43 KDMX 010907
RWRIA

WEATHER ROUNDUP FOR IOWA
NATIONAL WEATHER SERVICE DES MOINES IA
400 AM CDT SAT AUG 01 2015

NOTE: "FAIR" INDICATES FEW OR NO CLOUDS BELOW 12,000 FEET WITH NO
SIGNIFICANT WEATHER AND/OR OBSTRUCTIONS TO VISIBILITY.

* - THESE STATIONS ARE NOT NWS STATIONS...THUS NOT UNDER NWS
QUALITY CONTROL.  THEY ALSO DO NOT REPORT WEATHER SUCH
AS PRECIPITATION OR FOG.

IAZ001>003-012>014-020>022-031>034-043>046-011000-
   NORTHWEST IOWA

CITY           SKY/WX    TMP DP  RH WIND       PRES   REMARKS
CARROLL *      CLEAR     66  63  88 CALM      30.05S
CHEROKEE *     CLEAR     63  63 100 CALM      30.04F
DENISON *      CLEAR     64  63  94 CALM      30.04S
LE MARS *      CLEAR     63  63 100 CALM      30.05F
ORANGE CITY *  CLEAR     66  63  88 SW6       30.05S
SHELDON *      CLEAR     66  63  88 SW7       30.03F
SIOUX CITY     CLEAR     68  64  87 CALM      30.04F
SPENCER        CLEAR     64  59  83 SW6       30.04S
STORM LAKE *   CLEAR     63  59  88 SW7       30.06S
$$

IAZ055>058-069>071-079>083-090>094-011000-
   SOUTHWEST IOWA

CITY           SKY/WX    TMP DP  RH WIND       PRES   REMARKS
ATLANTIC *     CLEAR     66  66 100 CALM      30.06S
AUDUBON *      CLEAR     63  61  94 CALM      30.07S
CLARINDA *     CLEAR     68  68 100 CALM      30.07S
COUNCIL BLFS * CLEAR     68  66  94 SW5       30.05F
CRESTON *      CLEAR     66  64  94 E3        30.08S
HARLAN  *      CLEAR     64  64 100 CALM      30.09S FOG
LAMONI         CLEAR     68  65  90 CALM      30.06F
RED OAK *      CLEAR     66  66 100 CALM      30.05F
SHENANDOAH *   CLEAR     66  66 100 CALM      30.06S
$$

IAZ047>049-059>061-072>074-084-011000-
   CENTRAL IOWA

CITY           SKY/WX    TMP DP  RH WIND       PRES   REMARKS
AMES           CLEAR     60  58  92 CALM      30.04F
ANKENY *       CLEAR     63  63 100 CALM      30.04F
CHARITON *     CLOUDY    68  66  94 SE3       30.06S
DES MOINES     PTCLDY    71  64  78 CALM      30.04S
GRINNELL*      CLEAR     63  59  88 CALM      30.05F
KNOXVILLE *    CLEAR     66  63  88 S5        30.04S
MARSHALLTOWN     N/A     61  60  97 CALM      30.03F
PELLA *        CLEAR     64  64 100 CALM      30.06S
PERRY *          N/A     64  64 100 CALM      30.04F
$$

IAZ004>006-015-016-023>025-035-036-011000-
   NORTH CENTRAL IOWA

CITY           SKY/WX    TMP DP  RH WIND       PRES   REMARKS
ALGONA *       CLEAR     63  59  88 SW8       30.04S
CLARION *      CLEAR     57  55  94 S6        30.04S
ESTHERVILLE    CLEAR     61  58  90 SW5       30.03F
FORT DODGE *   CLEAR     61  57  88 CALM      30.05S
MASON CITY     CLEAR     61  57  87 SW6       30.04F
FOREST CITY *  CLEAR     55  55 100 CALM      30.03F
IOWA FALLS *     N/A     61  57  88 CALM      30.05S
$$

IAZ007>011-017>019-026>030-037>042-050>054-066-011000-
   NORTHEAST IOWA

CITY           SKY/WX    TMP DP  RH WIND       PRES   REMARKS
CEDAR RAPIDS   CLEAR     61  60  97 CALM      30.03S
CHARLES CITY * CLEAR     59  59 100 CALM      30.03F
CLINTON *      CLEAR     57  55  94 W5        30.05S
DECORAH *      MOCLDY    64  59  82 CALM      30.01F
DUBUQUE        CLEAR     59  56  89 SW6       30.03S
MONTICELLO *   CLEAR     55  55 100 CALM      30.03S
OELWEIN *        N/A    N/A N/A N/A CALM      30.04S
WATERLOO       CLEAR     59  57  93 CALM      30.02F
$$

IAZ064-065-067-068-078-011000-
   EAST CENTRAL IOWA

CITY           SKY/WX    TMP DP  RH WIND       PRES   REMARKS
DAVENPORT      CLEAR     60  57  89 NW5       30.04S
IOWA CITY      CLEAR     63  59  87 CALM      30.04F
MT. PLEASANT * CLEAR     63  59  88 CALM      30.05R
MUSCATINE *    CLEAR     63  59  88 CALM      30.04S
QUAD CITIES    CLEAR     60  57  89 CALM      30.03S
$$

IAZ062-063-075>077-085>089-095>099-011000-
   SOUTHEAST IOWA

CITY           SKY/WX    TMP DP  RH WIND       PRES   REMARKS
BURLINGTON     CLEAR     62  59  90 CALM      30.04R
FAIRFIELD *    CLEAR     63  61  94 CALM      30.05R
FORT MADISON * MOCLDY    66  63  88 CALM      30.06R
KEOKUK *       MOCLDY    68  66  94 CALM      30.04S
OSKALOOSA *      N/A     63  61  94 W3        30.06S
CENTERVILLE *  CLEAR     66  66 100 E3        30.07F
OTTUMWA        FOG       64  64 100 CALM      30.04S VSB 1
WASHINGTON *   CLEAR     59  59 100 W3        30.05F
$$

ABBREVIATIONS USED IN REMARKS
   TC - TEMPERATURES IN CELSIUS
  WCI - WIND CHILL INDEX
   HX - HEAT INDEX
  VSB - VISIBILITY
$$



USA.gov is the U.S. government's official web portal to all federal, state and local government web resources and services.